| time (UTC) | temp F | wind direction | speed MPH | gust MPH | rain 1hr in | rain 24hr in | rain mn in | humidity % | barometer mb |
| 20260902115335 | 61 | 136 | 1.0 | 1.0 | 0.00 | 0.00 | 0.00 | 84 | 1011.3 |
| 20260902114335 | 62 | 135 | 0.0 | 1.0 | 0.00 | 0.00 | 0.00 | 83 | 1011.2 |
| 20260902113712 | 62 | 126 | 0.0 | 2.0 | 0.00 | 0.00 | 0.00 | 82 | 1011.1 |
| 20260902095335 | 65 | 108 | 1.0 | 3.0 | 0.00 | 0.00 | 0.00 | 80 | 1010.8 |
| 20260902094335 | 65 | 127 | 0.0 | 4.0 | 0.00 | 0.00 | 0.00 | 80 | 1010.7 |
| 20260902093335 | 65 | 133 | 0.0 | 1.0 | 0.00 | 0.00 | 0.00 | 80 | 1010.6 |
| 20260902092335 | 66 | 74 | 1.0 | 5.0 | 0.00 | 0.00 | 0.00 | 80 | 1010.6 |
| 20260902091335 | 66 | 148 | 0.0 | 4.0 | 0.00 | 0.00 | 0.00 | 81 | 1010.7 |
| 20260902090335 | 66 | 37 | 0.0 | 3.0 | 0.00 | 0.00 | 0.00 | 80 | 1010.5 |
| 20260902085335 | 66 | 144 | 1.0 | 5.0 | 0.00 | 0.00 | 0.00 | 80 | 1010.5 |
| 20260902084335 | 66 | 177 | 1.0 | 2.0 | 0.00 | 0.00 | 0.00 | 80 | 1010.4 |
| 20260902083335 | 67 | 135 | 1.0 | 3.0 | 0.00 | 0.00 | 0.00 | 80 | 1010.2 |
| 20260902082335 | 67 | 144 | 0.0 | 1.0 | 0.00 | 0.00 | 0.00 | 79 | 1010.2 |
| 20260902081335 | 68 | 116 | 0.0 | 1.0 | 0.00 | 0.00 | 0.00 | 77 | 1010.2 |
| 20260902080335 | 68 | 136 | 1.0 | 2.0 | 0.00 | 0.00 | 0.00 | 76 | 1010.1 |
| 20260902075335 | 69 | 79 | 1.0 | 2.0 | 0.00 | 0.00 | 0.00 | 74 | 1010.1 |
| 20260902074335 | 69 | 121 | 5.0 | 6.0 | 0.00 | 0.00 | 0.00 | 73 | 1009.9 |
| 20260902073335 | 70 | 57 | 1.0 | 4.0 | 0.00 | 0.00 | 0.00 | 71 | 1010.0 |
| 20260902072335 | 70 | 43 | 1.0 | 6.0 | 0.00 | 0.00 | 0.00 | 69 | 1009.8 |
| 20260902071335 | 71 | 61 | 1.0 | 6.0 | 0.00 | 0.00 | 0.00 | 67 | 1009.4 |
| 20260902070335 | 72 | 129 | 2.0 | 6.0 | 0.00 | 0.00 | 0.00 | 66 | 1009.4 |
| 20260902065335 | 72 | 80 | 1.0 | 7.0 | 0.00 | 0.00 | 0.00 | 65 | 1009.3 |
| 20260902064335 | 72 | 98 | 3.0 | 9.0 | 0.00 | 0.00 | 0.00 | 64 | 1009.4 |
| 20260902063335 | 73 | 112 | 2.0 | 5.0 | 0.00 | 0.00 | 0.00 | 67 | 1009.3 |
| 20260902062335 | 73 | 95 | 2.0 | 9.0 | 0.00 | 0.00 | 0.00 | 66 | 1009.2 |
| 20260902061335 | 73 | 89 | 1.0 | 8.0 | 0.00 | 0.00 | 0.00 | 65 | 1009.3 |
| 20260902060335 | 73 | 158 | 1.0 | 8.0 | 0.00 | 0.00 | 0.00 | 65 | 1009.3 |
| 20260902055335 | 75 | 99 | 4.0 | 10.0 | 0.00 | 0.00 | 0.00 | 63 | 1009.4 |
| 20260902054335 | 75 | 139 | 0.0 | 8.0 | 0.00 | 0.00 | 0.00 | 63 | 1009.1 |
| 20260902053335 | 75 | 166 | 2.0 | 7.0 | 0.00 | 0.00 | 0.00 | 63 | 1009.3 |
| 20260902052335 | 76 | 221 | 0.0 | 8.0 | 0.00 | 0.00 | 0.00 | 62 | 1009.4 |
| 20260902051335 | 76 | 12 | 1.0 | 7.0 | 0.00 | 0.00 | 0.00 | 62 | 1009.3 |
| 20260902050335 | 77 | 80 | 1.0 | 7.0 | 0.00 | 0.00 | 0.00 | 60 | 1009.3 |
| 20260902045335 | 77 | 96 | 1.0 | 6.0 | 0.00 | 0.00 | 0.00 | 60 | 1009.5 |
| 20260902044335 | 77 | 65 | 3.0 | 5.0 | 0.00 | 0.00 | 0.00 | 59 | 1009.4 |
| 20260902043335 | 77 | 20 | 1.0 | 7.0 | 0.00 | 0.00 | 0.00 | 58 | 1009.7 |
| 20260902042335 | 77 | 132 | 1.0 | 10.0 | 0.00 | 0.00 | 0.00 | 56 | 1009.7 |
| 20260902041335 | 76 | 109 | 3.0 | 6.0 | 0.00 | 0.00 | 0.00 | 57 | 1009.8 |
| 20260902040335 | 76 | 127 | 2.0 | 9.0 | 0.00 | 0.00 | 0.00 | 56 | 1009.9 |
| 20260902035335 | 78 | 154 | 2.0 | 7.0 | 0.00 | 0.00 | 0.00 | 54 | 1010.1 |
| 20260902034335 | 79 | 57 | 3.0 | 6.0 | 0.00 | 0.00 | 0.00 | 41 | 1010.3 |
| 20260902033335 | 79 | 22 | 2.0 | 6.0 | 0.00 | 0.00 | 0.00 | 42 | 1010.2 |
| 20260902032335 | 80 | 274 | 1.0 | 2.0 | 0.00 | 0.00 | 0.00 | 41 | 1010.3 |
| 20260902031335 | 81 | 330 | 3.0 | 4.0 | 0.00 | 0.00 | 0.00 | 42 | 1010.7 |
| 20260902030335 | 80 | 4 | 2.0 | 6.0 | 0.00 | 0.00 | 0.00 | 43 | 1010.9 |
| 20260902025335 | 78 | 238 | 0.0 | 5.0 | 0.00 | 0.00 | 0.00 | 47 | 1010.9 |
| 20260902024335 | 78 | 298 | 5.0 | 9.0 | 0.00 | 0.00 | 0.00 | 45 | 1011.0 |
| 20260902023335 | 78 | 347 | 3.0 | 6.0 | 0.00 | 0.00 | 0.00 | 45 | 1011.5 |
| 20260902022335 | 79 | 26 | 14.0 | 14.0 | 0.00 | 0.00 | 0.00 | 46 | 1011.8 |
| 20260902021335 | 77 | 62 | 5.0 | 11.0 | 0.00 | 0.00 | 0.00 | 50 | 1012.2 |
| 20260902020335 | 78 | 44 | 6.0 | 11.0 | 0.00 | 0.00 | 0.00 | 50 | 1012.3 |
| 20260902015335 | 77 | 55 | 5.0 | 7.0 | 0.00 | 0.00 | 0.00 | 50 | 1012.5 |
| 20260902014335 | 76 | 53 | 4.0 | 5.0 | 0.00 | 0.00 | 0.00 | 52 | 1012.8 |
| 20260902013335 | 74 | 204 | 0.0 | 4.0 | 0.00 | 0.00 | 0.00 | 55 | 1013.3 |
| 20260902012335 | 74 | 291 | 1.0 | 5.0 | 0.00 | 0.00 | 0.00 | 55 | 1013.2 |
| 20260902011335 | 75 | 106 | 4.0 | 6.0 | 0.00 | 0.00 | 0.00 | 54 | 1013.6 |
| 20260902010335 | 75 | 70 | 4.0 | 8.0 | 0.00 | 0.00 | 0.00 | 56 | 1013.8 |
| 20260902005335 | 73 | 200 | 1.0 | 4.0 | 0.00 | 0.00 | 0.00 | 59 | 1014.2 |
| 20260902004335 | 73 | 100 | 3.0 | 8.0 | 0.00 | 0.00 | 0.00 | 58 | 1014.2 |
| 20260902003335 | 73 | 180 | 2.0 | 3.0 | 0.00 | 0.00 | 0.00 | 59 | 1014.4 |
| 20260902002335 | 71 | 115 | 2.0 | 5.0 | 0.00 | 0.00 | 0.00 | 61 | 1014.6 |
| 20260902001335 | 70 | 163 | 2.0 | 8.0 | 0.00 | 0.00 | 0.00 | 64 | 1014.7 |
| 20260902000337 | 70 | 83 | 3.0 | 4.0 | 0.00 | 0.00 | 0.00 | 63 | 1015.0 |
| 20260901235335 | 70 | 54 | 3.0 | 5.0 | 0.00 | 0.00 | 0.00 | 63 | 1015.1 |
| 20260901234335 | 69 | 167 | 1.0 | 4.0 | 0.00 | 0.00 | 0.00 | 65 | 1015.1 |
| 20260901233335 | 69 | 153 | 1.0 | 6.0 | 0.00 | 0.00 | 0.00 | 63 | 1015.2 |
| 20260901232335 | 67 | 344 | 1.0 | 2.0 | 0.00 | 0.00 | 0.00 | 69 | 1015.4 |
| 20260901231335 | 67 | 85 | 3.0 | 6.0 | 0.00 | 0.00 | 0.00 | 73 | 1015.2 |
| 20260901230335 | 67 | 116 | 2.0 | 6.0 | 0.00 | 0.00 | 0.00 | 74 | 1015.5 |
| 20260901225335 | 67 | 69 | 0.0 | 3.0 | 0.00 | 0.00 | 0.00 | 73 | 1015.3 |
| 20260901224335 | 67 | 65 | 2.0 | 6.0 | 0.00 | 0.00 | 0.00 | 72 | 1015.3 |
| 20260901223335 | 65 | 60 | 0.0 | 3.0 | 0.00 | 0.00 | 0.00 | 75 | 1015.4 |
| 20260901222335 | 64 | 128 | 1.0 | 4.0 | 0.00 | 0.00 | 0.00 | 80 | 1015.6 |
| 20260901221335 | 63 | 269 | 0.0 | 4.0 | 0.00 | 0.00 | 0.00 | 81 | 1015.4 |
| 20260901220335 | 63 | 60 | 0.0 | 2.0 | 0.00 | 0.00 | 0.00 | 81 | 1015.4 |
| 20260901215335 | 62 | 63 | 2.0 | 4.0 | 0.00 | 0.00 | 0.00 | 84 | 1015.5 |
| 20260901214335 | 61 | 88 | 1.0 | 3.0 | 0.00 | 0.00 | 0.00 | 85 | 1015.4 |
| 20260901213335 | 59 | 62 | 1.0 | 1.0 | 0.00 | 0.00 | 0.00 | 91 | 1015.2 |
| 20260901212335 | 55 | 89 | 0.0 | 2.0 | 0.00 | 0.00 | 0.00 | 99 | 1015.1 |
| 20260901211335 | 54 | 86 | 1.0 | 2.0 | 0.00 | 0.00 | 0.00 | 99 | 1015.0 |
| 20260901210335 | 51 | 64 | 1.0 | 2.0 | 0.00 | 0.00 | 0.00 | 99 | 1015.0 |
| 20260901205335 | 50 | 60 | 0.0 | 1.0 | 0.00 | 0.00 | 0.00 | 99 | 1014.8 |
| 20260901204335 | 49 | 164 | 1.0 | 3.0 | 0.00 | 0.00 | 0.00 | 99 | 1014.6 |
| 20260901203335 | 48 | 68 | 1.0 | 2.0 | 0.00 | 0.00 | 0.00 | 99 | 1014.5 |
| 20260901202335 | 48 | 357 | 0.0 | 1.0 | 0.00 | 0.00 | 0.00 | 99 | 1014.7 |
| 20260901201335 | 48 | 57 | 0.0 | 2.0 | 0.00 | 0.00 | 0.00 | 99 | 1014.5 |
| 20260901200335 | 49 | 100 | 1.0 | 2.0 | 0.00 | 0.00 | 0.00 | 99 | 1014.5 |
| 20260901195335 | 49 | 115 | 1.0 | 2.0 | 0.00 | 0.00 | 0.00 | 99 | 1014.5 |
| 20260901194335 | 49 | 63 | 1.0 | 2.0 | 0.00 | 0.00 | 0.00 | 99 | 1014.4 |
| 20260901193335 | 49 | 143 | 1.0 | 2.0 | 0.00 | 0.00 | 0.00 | 99 | 1014.4 |
| 20260901192335 | 49 | 119 | 1.0 | 3.0 | 0.00 | 0.00 | 0.00 | 99 | 1014.2 |
| 20260901191335 | 49 | 89 | 0.0 | 2.0 | 0.00 | 0.00 | 0.00 | 99 | 1014.1 |
| 20260901190335 | 50 | 116 | 1.0 | 2.0 | 0.00 | 0.00 | 0.00 | 99 | 1014.2 |
| 20260901185335 | 50 | 141 | 0.0 | 2.0 | 0.00 | 0.00 | 0.00 | 99 | 1014.1 |
| 20260901184335 | 51 | 290 | 0.0 | 2.0 | 0.00 | 0.00 | 0.00 | 99 | 1014.0 |
| 20260901183335 | 53 | 71 | 1.0 | 2.0 | 0.00 | 0.00 | 0.00 | 99 | 1014.0 |
| 20260901182335 | 51 | 37 | 0.0 | 1.0 | 0.00 | 0.00 | 0.00 | 99 | 1014.2 |
| 20260901181335 | 51 | 105 | 0.0 | 2.0 | 0.00 | 0.00 | 0.00 | 99 | 1014.0 |
| 20260901180335 | 51 | 129 | 1.0 | 2.0 | 0.00 | 0.00 | 0.00 | 99 | 1014.0 |
| 20260901175335 | 51 | 225 | 0.0 | 1.0 | 0.00 | 0.00 | 0.00 | 99 | 1014.0 |
| 20260901174335 | 51 | 61 | 1.0 | 2.0 | 0.00 | 0.00 | 0.00 | 99 | 1014.1 |
| 20260901173335 | 51 | 33 | 1.0 | 2.0 | 0.00 | 0.00 | 0.00 | 99 | 1013.8 |
| 20260901172335 | 52 | 117 | 0.0 | 2.0 | 0.00 | 0.00 | 0.00 | 99 | 1014.0 |
| 20260901171335 | 51 | 52 | 0.0 | 1.0 | 0.00 | 0.00 | 0.00 | 99 | 1014.0 |
| 20260901170335 | 51 | 205 | 0.0 | 2.0 | 0.00 | 0.00 | 0.00 | 99 | 1014.4 |
| 20260901165335 | 52 | 73 | 0.0 | 1.0 | 0.00 | 0.00 | 0.00 | 99 | 1014.5 |
| 20260901164335 | 53 | 147 | 0.0 | 1.0 | 0.00 | 0.00 | 0.00 | 99 | 1014.6 |
| 20260901163335 | 54 | 134 | 0.0 | 1.0 | 0.00 | 0.00 | 0.00 | 99 | 1014.8 |
| 20260901162335 | 53 | 122 | 0.0 | 1.0 | 0.00 | 0.00 | 0.00 | 98 | 1014.9 |
| 20260901161335 | 54 | 59 | 0.0 | 1.0 | 0.00 | 0.00 | 0.00 | 97 | 1015.0 |
| 20260901160335 | 55 | 134 | 0.0 | 2.0 | 0.00 | 0.00 | 0.00 | 97 | 1014.8 |
| 20260901155335 | 56 | 27 | 1.0 | 1.0 | 0.00 | 0.00 | 0.00 | 98 | 1015.0 |
| 20260901154335 | 54 | 135 | 0.0 | 1.0 | 0.00 | 0.00 | 0.00 | 98 | 1015.2 |
| 20260901153335 | 54 | 339 | 0.0 | 1.0 | 0.00 | 0.00 | 0.00 | 98 | 1015.1 |
| 20260901152335 | 53 | 235 | 0.0 | 2.0 | 0.00 | 0.00 | 0.00 | 97 | 1014.8 |
| 20260901151335 | 53 | 70 | 0.0 | 2.0 | 0.00 | 0.00 | 0.00 | 96 | 1015.2 |
| 20260901150335 | 54 | 87 | 0.0 | 2.0 | 0.00 | 0.00 | 0.00 | 96 | 1015.2 |
| 20260901145335 | 55 | 329 | 0.0 | 1.0 | 0.00 | 0.00 | 0.00 | 96 | 1015.4 |
| 20260901144335 | 55 | 48 | 1.0 | 2.0 | 0.00 | 0.00 | 0.00 | 93 | 1015.5 |
| 20260901143335 | 58 | 54 | 0.0 | 3.0 | 0.00 | 0.00 | 0.00 | 91 | 1015.3 |
| 20260901142335 | 59 | 190 | 1.0 | 2.0 | 0.00 | 0.00 | 0.00 | 91 | 1015.4 |
| 20260901141335 | 58 | 129 | 0.0 | 1.0 | 0.00 | 0.00 | 0.00 | 93 | 1015.6 |
| 20260901140335 | 57 | 315 | 0.0 | 1.0 | 0.00 | 0.00 | 0.00 | 94 | 1015.8 |
| 20260901135335 | 56 | 230 | 1.0 | 2.0 | 0.00 | 0.00 | 0.00 | 98 | 1015.9 |
| 20260901134335 | 55 | 290 | 0.0 | 3.0 | 0.00 | 0.00 | 0.00 | 98 | 1015.9 |
| 20260901133335 | 55 | 162 | 1.0 | 1.0 | 0.00 | 0.00 | 0.00 | 98 | 1016.0 |
| 20260901132335 | 55 | 181 | 1.0 | 1.0 | 0.00 | 0.00 | 0.00 | 98 | 1016.1 |
| 20260901131335 | 54 | 65 | 1.0 | 2.0 | 0.00 | 0.00 | 0.00 | 98 | 1016.0 |
| 20260901130335 | 55 | 185 | 0.0 | 2.0 | 0.00 | 0.00 | 0.00 | 98 | 1016.3 |
| 20260901125335 | 55 | 92 | 0.0 | 1.0 | 0.00 | 0.00 | 0.00 | 97 | 1016.5 |
| 20260901124335 | 55 | 77 | 0.0 | 2.0 | 0.00 | 0.00 | 0.00 | 97 | 1016.6 |
| 20260901123335 | 55 | 59 | 0.0 | 2.0 | 0.00 | 0.00 | 0.00 | 96 | 1016.6 |
| 20260901122335 | 56 | 127 | 1.0 | 1.0 | 0.00 | 0.00 | 0.00 | 96 | 1016.3 |
| 20260901121335 | 57 | 147 | 0.0 | 1.0 | 0.00 | 0.00 | 0.00 | 96 | 1016.4 |
| 20260901120335 | 57 | 207 | 0.0 | 1.0 | 0.00 | 0.00 | 0.00 | 96 | 1016.3 |